Weather History for KPGA - November, 2014

Change the Weather History Date:

Wednesday, November 5, 2014

  Actual Average Record
Temperature  
Mean Temperature 50 °F -  
Max Temperature 63 °F 60 °F 70 °F (1958)
Min Temperature 37 °F 39 °F 30 °F (1991)
Degree Days  
Heating Degree Days 15    
Moisture  
Dew Point 21 °F    
Average Humidity 33    
Maximum Humidity 52    
Minimum Humidity 13    
Precipitation  
Precipitation 0.00 in - - ()
Sea Level Pressure  
Sea Level Pressure 30.31 in    
Wind  
Wind Speed 2 mph (SW)    
Max Wind Speed 6 mph    
Max Gust Speed -    
Visibility 9 miles    
Events      
Averages and records for this station are not official NWS values.
T = Trace of Precipitation, MM = Missing Value Source: NWS Daily Summary

Daily Weather History Graph

Daily Weather History Graph

Search for Another Location

Airport or City:

Trip Planner

Search our weather history database for the weather conditions in past years. The results will help you decide how hot, cold, wet, or windy it might be!

Date:

Astronomy

Nov. 05, 2014 Rise Set
Actual Time 6:53 AM MST 5:24 PM MST
Civil Twilight 6:26 AM MST 5:51 PM MST
Nautical Twilight 5:55 AM MST 6:22 PM MST
Astronomical Twilight 5:25 AM MST 6:52 PM MST
Moon 4:50 PM MST (11/5) 5:25 AM MST (11/5)
Length of Visible Light 11h 24m
Length of Day
10h 30m
Waxing Gibbous, 98% of the Moon is Illuminated
Nov 5
Waxing Gibbous
Nov 6
Full
Nov 14
Last Quarter
Nov 22
New
Nov 29
First Quarter

Hourly Weather History & Observations

Time (MST) Temp. Windchill Dew Point Humidity Pressure Visibility Wind Dir Wind Speed Gust Speed Precip Events Conditions
12:53 AM 44.1 °F - 21.0 °F 40% 30.29 in 10.0 mi Calm Calm - N/A   Clear
1:53 AM 41.0 °F 39.0 °F 18.0 °F 40% 30.27 in 6.0 mi South 3.5 mph - N/A   Haze
2:53 AM 41.0 °F - 18.0 °F 40% 30.28 in 10.0 mi Calm Calm - N/A   Clear
3:53 AM 39.9 °F 37.8 °F 19.9 °F 45% 30.28 in 10.0 mi South 3.5 mph - N/A   Clear
4:53 AM 37.9 °F 35.5 °F 19.0 °F 47% 30.29 in 10.0 mi SW 3.5 mph - N/A   Clear
5:53 AM 39.0 °F 36.8 °F 19.0 °F 45% 30.31 in 10.0 mi West 3.5 mph - N/A   Clear
6:53 AM 37.0 °F 34.5 °F 21.0 °F 52% 30.33 in 10.0 mi SSE 3.5 mph - N/A   Clear
7:53 AM 43.0 °F - 21.0 °F 42% 30.34 in 10.0 mi Calm Calm - N/A   Clear
8:53 AM 46.0 °F - 18.0 °F 33% 30.36 in 10.0 mi Calm Calm - N/A   Clear
9:53 AM 50.0 °F - 19.9 °F 31% 30.36 in 10.0 mi Calm Calm - N/A   Clear
10:53 AM 53.1 °F - 21.0 °F 29% 30.35 in 10.0 mi WNW 5.8 mph - N/A   Clear
11:53 AM 55.0 °F - 23.0 °F 29% 30.32 in 10.0 mi North 5.8 mph - N/A   Clear
12:53 PM 57.0 °F - 21.9 °F 26% 30.29 in 10.0 mi Variable 3.5 mph - N/A   Clear
1:53 PM 60.1 °F - 19.9 °F 21% 30.27 in 10.0 mi Calm Calm - N/A   Clear
2:53 PM 61.0 °F - 19.9 °F 21% 30.26 in 10.0 mi East 3.5 mph - N/A   Clear
3:53 PM 63.0 °F - 19.9 °F 19% 30.25 in 10.0 mi NE 4.6 mph - N/A   Clear
4:53 PM 60.1 °F - 21.9 °F 23% 30.26 in 10.0 mi ENE 3.5 mph - N/A   Clear
5:53 PM 55.0 °F - 21.0 °F 27% 30.27 in 10.0 mi Calm Calm - N/A   Clear
6:53 PM 52.0 °F - 24.1 °F 34% 30.30 in 10.0 mi Calm Calm - N/A   Clear
7:53 PM 51.1 °F - 24.1 °F 35% 30.30 in 7.0 mi West 3.5 mph - N/A   Clear
8:53 PM 48.9 °F - 24.1 °F 38% 30.32 in 8.0 mi WSW 3.5 mph - N/A   Clear
9:53 PM 48.9 °F - 24.1 °F 38% 30.32 in 6.0 mi Calm Calm - N/A   Haze
10:53 PM 46.9 °F - 24.1 °F 41% 30.34 in 2.5 mi Calm Calm - N/A   Haze
11:01 PM 46.9 °F - 24.1 °F 41% 30.40 in 5.0 mi Calm Calm - N/A   Haze
11:53 PM 46.0 °F - 23.0 °F 40% 30.35 in 9.0 mi Calm Calm - N/A   Clear